FW2104 Weather Reports


Display with metric or nautical units.
time (UTC)temp
F
wind
direction
speed
MPH
gust
MPH
rain 1hr
in
rain 24hr
in
rain mn
in
humidity
%
barometer
mb
20191015210205 86 180 4.0 6.0 0.00 0.05 0.00 64 1011.4
20191015205159 87 270 4.0 8.0 0.00 0.05 0.00 64 1011.3
20191015204145 86 270 3.0 6.0 0.00 0.05 0.00 66 1011.4
20191015203135 86 292 5.0 8.0 0.00 0.05 0.00 65 1011.6
20191015202125 85 202 4.0 5.0 0.00 0.05 0.00 67 1011.7
20191015201115 84 315 4.0 8.0 0.00 0.05 0.00 69 1011.9
20191015200117 83 180 5.0 6.0 0.00 0.05 0.00 70 1011.9
20191015195116 83 248 4.0 8.0 0.00 0.05 0.00 72 1012.1
20191015194106 82 225 4.0 8.0 0.00 0.05 0.00 71 1012.3
20191015193047 82 270 4.0 6.0 0.00 0.05 0.00 71 1012.3
20191015192033 82 292 3.0 6.0 0.00 0.05 0.00 71 1012.5
20191015191008 82 315 4.0 7.0 0.00 0.05 0.00 71 1012.5
20191015185958 82 248 3.0 6.0 0.00 0.05 0.00 71 1012.8
20191015184958 82 22 5.0 9.0 0.00 0.05 0.00 71 1012.8
20191015184000 82 225 6.0 8.0 0.00 0.05 0.00 71 1013.3
20191015182953 82 202 3.0 6.0 0.00 0.05 0.00 72 1013.5
20191015181950 82 225 4.0 6.0 0.00 0.05 0.00 72 1013.9
20191015180949 82 270 3.0 7.0 0.00 0.05 0.00 72 1014.0
20191015175938 82 270 3.0 5.0 0.00 0.05 0.00 74 1013.8
20191015174914 81 0 3.0 8.0 0.00 0.05 0.00 75 1013.8
20191015173904 80 292 5.0 9.0 0.00 0.05 0.00 77 1013.9
20191015172904 79 270 3.0 6.0 0.00 0.05 0.00 80 1013.8
20191015171903 78 225 4.0 6.0 0.00 0.05 0.00 82 1014.1
20191015170855 77 292 2.0 7.0 0.00 0.05 0.00 83 1014.3
20191015165853 77 270 3.0 7.0 0.00 0.05 0.00 84 1014.4
20191015164839 76 202 4.0 6.0 0.00 0.05 0.00 84 1014.4
20191015163821 76 180 2.0 6.0 0.00 0.05 0.00 84 1014.3
20191015162748 76 270 3.0 7.0 0.00 0.05 0.00 84 1014.7
20191015161745 77 135 3.0 8.0 0.00 0.05 0.00 84 1014.6
20191015160732 77 225 4.0 6.0 0.00 0.05 0.00 84 1014.6
20191015155726 77 270 3.0 6.0 0.00 0.05 0.00 84 1014.6
20191015154712 77 248 2.0 5.0 0.00 0.05 0.00 86 1014.6
20191015153703 77 270 2.0 4.0 0.00 0.05 0.00 86 1014.6
20191015152703 76 180 2.0 4.0 0.00 0.05 0.00 87 1014.4
20191015151702 76 270 2.0 5.0 0.00 0.05 0.00 89 1014.7
20191015150653 75 202 1.0 3.0 0.00 0.05 0.00 89 1014.6
20191015145653 75 202 1.0 3.0 0.00 0.05 0.00 90 1014.5
20191015144619 74 180 2.0 4.0 0.00 0.05 0.00 92 1014.6
20191015143554 74 225 1.0 3.0 0.00 0.05 0.00 92 1014.7
20191015142545 73 270 2.0 3.0 0.00 0.05 0.00 93 1014.7
20191015141520 73 338 3.0 5.0 0.00 0.05 0.00 93 1014.5
20191015140511 73 225 2.0 4.0 0.00 0.05 0.00 93 1014.3
20191015135503 73 270 2.0 4.0 0.00 0.05 0.00 94 1014.3
20191015134456 72 292 2.0 3.0 0.00 0.05 0.00 94 1014.2
20191015133437 72 270 1.0 3.0 0.00 0.05 0.00 94 1014.1
20191015132423 72 202 2.0 3.0 0.00 0.05 0.00 94 1014.1
20191015131343 72 180 2.0 4.0 0.00 0.05 0.00 94 1014.2
20191015130330 72 270 2.0 3.0 0.00 0.05 0.00 94 1014.1
20191015125305 72 248 2.0 3.0 0.00 0.05 0.00 94 1014.1
20191015124255 72 270 2.0 4.0 0.00 0.05 0.00 94 1014.1
20191015123253 72 225 2.0 3.0 0.00 0.05 0.00 95 1014.3
20191015122240 72 202 2.0 3.0 0.00 0.05 0.00 95 1014.4
20191015121220 72 225 2.0 5.0 0.00 0.05 0.00 95 1014.2
20191015120206 72 180 2.0 5.0 0.00 0.05 0.00 95 1014.2
20191015115146 71 270 2.0 4.0 0.00 0.05 0.00 96 1014.3
20191015114112 71 202 2.0 4.0 0.00 0.05 0.00 96 1014.1
20191015113113 71 248 1.0 4.0 0.00 0.05 0.00 96 1014.2
20191015112057 71 270 1.0 6.0 0.00 0.05 0.00 96 1014.2
20191015111037 71 248 1.0 3.0 0.00 0.05 0.00 96 1014.2
20191015110023 71 225 1.0 5.0 0.00 0.05 0.00 96 1014.2
20191015104955 71 292 2.0 3.0 0.00 0.05 0.00 96 1014.1
20191015103929 71 180 1.0 4.0 0.00 0.05 0.00 96 1014.0
20191015102905 71 90 2.0 3.0 0.00 0.05 0.00 96 1013.8
20191015101856 71 112 2.0 4.0 0.00 0.05 0.00 96 1013.8
20191015100855 71 68 3.0 4.0 0.00 0.05 0.00 96 1013.9
20191015095841 71 45 2.0 4.0 0.00 0.05 0.00 96 1014.0
20191015094813 71 45 2.0 5.0 0.00 0.05 0.00 96 1014.0
20191015093806 70 180 2.0 3.0 0.00 0.05 0.00 96 1014.0
20191015092722 70 135 3.0 5.0 0.00 0.05 0.00 96 1014.0
20191015091721 70 90 2.0 3.0 0.00 0.05 0.00 96 1014.0
20191015090649 70 112 2.0 4.0 0.00 0.05 0.00 96 1014.2
20191015085640 70 180 3.0 5.0 0.00 0.05 0.00 96 1014.4
20191015084616 70 68 2.0 3.0 0.00 0.05 0.00 96 1014.4
20191015083606 70 135 3.0 5.0 0.00 0.05 0.00 96 1014.4
20191015082605 69 112 3.0 8.0 0.00 0.05 0.00 96 1014.4
20191015081549 69 315 2.0 5.0 0.00 0.05 0.00 96 1014.6
20191015080540 69 112 2.0 5.0 0.00 0.05 0.00 96 1014.7
20191015075531 69 112 3.0 4.0 0.00 0.05 0.00 96 1014.8
20191015074521 69 112 4.0 6.0 0.00 0.05 0.00 96 1015.0
20191015073522 69 180 3.0 3.0 0.00 0.05 0.00 96 1015.1
20191015072450 69 90 3.0 4.0 0.00 0.05 0.00 96 1015.1
20191015071433 69 202 3.0 6.0 0.00 0.05 0.00 96 1015.2
20191015070419 69 248 3.0 4.0 0.00 0.05 0.00 96 1015.2
20191015065415 69 112 2.0 3.0 0.00 0.05 0.00 96 1015.3
20191015064359 69 135 3.0 5.0 0.00 0.05 0.00 96 1015.3
20191015063349 69 158 3.0 4.0 0.00 0.05 0.00 96 1015.4
20191015062339 69 158 3.0 5.0 0.00 0.05 0.00 96 1015.6
20191015061336 68 158 2.0 4.0 0.00 0.05 0.00 95 1015.6
20191015060330 68 112 4.0 5.0 0.00 0.05 0.00 95 1015.5
20191015055257 68 112 3.0 5.0 0.00 0.05 0.00 95 1015.7
20191015054232 68 202 3.0 5.0 0.00 0.05 0.00 95 1015.8
20191015053221 68 22 3.0 4.0 0.00 0.05 0.00 95 1015.9
20191015052158 68 315 3.0 5.0 0.00 0.05 0.00 95 1015.9
20191015051147 68 225 4.0 5.0 0.00 0.05 0.00 94 1016.1
20191015050147 68 180 3.0 5.0 0.00 0.05 0.00 94 1016.1
20191015045114 68 0 3.0 4.0 0.00 0.05 0.05 94 1016.3
20191015044114 68 68 3.0 5.0 0.00 0.05 0.05 94 1016.3
20191015043059 68 112 4.0 6.0 0.00 0.05 0.05 94 1016.3
20191015042045 68 135 3.0 4.0 0.00 0.05 0.05 93 1016.4
20191015041026 68 45 2.0 4.0 0.00 0.05 0.05 93 1016.4
20191015040020 68 180 4.0 5.0 0.00 0.05 0.05 93 1016.4
20191015035005 67 180 3.0 8.0 0.00 0.05 0.05 93 1016.3
20191015033957 67 225 3.0 5.0 0.00 0.05 0.05 93 1016.4
20191015032956 67 225 2.0 5.0 0.00 0.05 0.05 93 1016.4
20191015031923 67 112 2.0 4.0 0.00 0.05 0.05 93 1016.2
20191015030857 67 112 3.0 4.0 0.00 0.05 0.05 93 1016.4
20191015025847 67 225 2.0 4.0 0.00 0.05 0.05 93 1016.3
20191015024848 67 112 3.0 6.0 0.01 0.05 0.05 92 1016.3
20191015023814 67 180 3.0 5.0 0.01 0.05 0.05 92 1016.1
20191015022813 67 112 2.0 4.0 0.01 0.05 0.05 92 1016.1
20191015021813 67 180 4.0 6.0 0.01 0.05 0.05 92 1016.1
20191015020806 67 180 3.0 5.0 0.01 0.05 0.05 92 1016.0
20191015015740 67 158 4.0 5.0 0.01 0.05 0.05 92 1016.1
20191015014729 67 112 3.0 4.0 0.02 0.04 0.04 92 1016.3
20191015013722 67 90 2.0 4.0 0.02 0.04 0.04 92 1016.3
20191015012656 67 90 3.0 5.0 0.02 0.04 0.04 91 1016.2
20191015011656 67 180 4.0 5.0 0.03 0.04 0.04 91 1016.1
20191015010640 67 112 4.0 5.0 0.03 0.04 0.04 91 1015.9
20191015005636 67 45 4.0 7.0 0.03 0.03 0.03 90 1015.7
20191015004626 68 112 4.0 7.0 0.02 0.02 0.02 90 1015.7
20191015003603 68 112 3.0 5.0 0.02 0.02 0.02 89 1015.5
20191015002555 68 158 3.0 5.0 0.02 0.02 0.02 88 1015.5
20191015001555 69 112 4.0 5.0 0.01 0.01 0.01 87 1015.6
20191015000546 69 22 2.0 4.0 0.01 0.01 0.01 87 1015.5
20191014235526 69 180 3.0 5.0 0.00 0.00 0.00 85 1015.6
20191014234511 69 180 2.0 6.0 0.00 0.00 0.00 83 1015.4
20191014233511 70 292 4.0 6.0 0.00 0.00 0.00 81 1015.2
20191014232512 70 292 3.0 4.0 0.00 0.00 0.00 80 1015.2
20191014231502 71 158 3.0 5.0 0.00 0.00 0.00 80 1015.2
20191014230501 71 202 4.0 5.0 0.00 0.00 0.00 80 1015.3
20191014225449 71 202 4.0 7.0 0.00 0.00 0.00 79 1015.2
20191014224420 72 158 4.0 5.0 0.00 0.00 0.00 78 1015.3
20191014223414 72 202 4.0 9.0 0.00 0.00 0.00 78 1015.2
20191014222346 72 180 4.0 7.0 0.00 0.00 0.00 77 1015.2
20191014221338 72 202 5.0 6.0 0.00 0.00 0.00 77 1015.2
20191014220331 73 180 4.0 7.0 0.00 0.00 0.00 77 1015.2
20191014215306 73 90 3.0 6.0 0.00 0.00 0.00 77 1015.4
20191014214247 73 135 5.0 7.0 0.00 0.00 0.00 77 1015.2
20191014213232 74 112 4.0 7.0 0.00 0.00 0.00 73 1015.4
20191014212155 75 225 4.0 7.0 0.00 0.00 0.00 72 1015.6
20191014211140 75 68 4.0 6.0 0.00 0.00 0.00 71 1015.9